• In India
  • List of Countries
  • For 7 days
  • Water Temperature
  • Satellite Maps
  • Weather Map
  • Weather Widgets
  • user-avatar
    Login

    Hourly Weather Mingachevir

    Today, 23 October, Monday

    Time Temperature Precipitation Wind Pressure Humidity
    00:00 +17°C° 0 mm 4 mps 749 mmHg 35%
    01:00 +17°C° 0 mm 4 mps 749 mmHg 35%
    02:00 +17°C° 0 mm 4 mps 749 mmHg 35%
    03:00 +16°C° 0 mm 5 mps 749 mmHg 35%
    04:00 +16°C° 0 mm 5 mps 749 mmHg 37%
    05:00 +15°C° 0 mm 5 mps 750 mmHg 39%
    06:00 +15°C° 0 mm 4 mps 751 mmHg 41%
    07:00 +16°C° 0 mm 5 mps 751 mmHg 39%
    08:00 +19°C° 0 mm 5 mps 751 mmHg 38%
    09:00 +21°C° 0 mm 5 mps 751 mmHg 37%
    10:00 +21°C° 0 mm 5 mps 752 mmHg 36%
    11:00 +22°C° 0 mm 4 mps 752 mmHg 35%
    12:00 +23°C° 0 mm 4 mps 752 mmHg 34%
    13:00 +24°C° 0 mm 3 mps 752 mmHg 34%
    14:00 +24°C° 0 mm 3 mps 753 mmHg 34%
    15:00 +24°C° 0 mm 2 mps 753 mmHg 33%
    16:00 +22°C° 0 mm 3 mps 754 mmHg 39%
    17:00 +21°C° 0 mm 3 mps 754 mmHg 44%
    18:00 +19°C° 0 mm 4 mps 755 mmHg 50%
    19:00 +17°C° 0 mm 5 mps 755 mmHg 57%
    20:00 +17°C° 0 mm 5 mps 756 mmHg 65%
    21:00 +16°C° 0 mm 5 mps 756 mmHg 72%
    22:00 +15°C° 0 mm 5 mps 756 mmHg 74%
    23:00 +15°C° 0 mm 4 mps 756 mmHg 75%

    Tomorrow, 24 October, Tuesday

    Time Temperature Precipitation Wind Pressure Humidity
    00:00 +15°C° 0 mm 4 mps 756 mmHg 76%
    01:00 +16°C° 0 mm 3 mps 756 mmHg 76%
    02:00 +16°C° 0 mm 3 mps 756 mmHg 75%
    03:00 +15°C° 0 mm 2 mps 756 mmHg 75%
    04:00 +15°C° 0 mm 2 mps 756 mmHg 75%
    05:00 +15°C° 0 mm 1 mps 756 mmHg 75%
    06:00 +15°C° 0 mm 1 mps 756 mmHg 75%
    07:00 +16°C° 0 mm 1 mps 756 mmHg 72%
    08:00 +16°C° 0 mm 1 mps 756 mmHg 68%
    09:00 +18°C° 0 mm 1 mps 755 mmHg 65%
    10:00 +19°C° 0 mm 1 mps 755 mmHg 61%
    11:00 +20°C° 0 mm 1 mps 755 mmHg 58%
    12:00 +20°C° 0 mm 2 mps 754 mmHg 55%
    13:00 +21°C° 0 mm 1 mps 754 mmHg 53%
    14:00 +22°C° 0 mm 1 mps 754 mmHg 52%
    15:00 +22°C° 0 mm 1 mps 754 mmHg 50%
    16:00 +21°C° 0 mm 1 mps 754 mmHg 54%
    17:00 +20°C° 0 mm 1 mps 754 mmHg 58%
    18:00 +19°C° 0 mm 1 mps 755 mmHg 63%
    19:00 +19°C° 0 mm 1 mps 755 mmHg 64%
    20:00 +18°C° 0 mm 1 mps 755 mmHg 65%
    21:00 +18°C° 0 mm 1 mps 755 mmHg 66%
    22:00 +18°C° 0 mm 1 mps 756 mmHg 67%
    23:00 +16°C° 0 mm 1 mps 756 mmHg 68%

    Day after tomorrow, 25 October, Wednesday

    Time Temperature Precipitation Wind Pressure Humidity
    00:00 +16°C° 0 mm 1 mps 756 mmHg 68%
    01:00 +16°C° 0 mm 1 mps 756 mmHg 68%
    02:00 +15°C° 0 mm 1 mps 756 mmHg 68%
    03:00 +15°C° 0 mm 1 mps 756 mmHg 69%
    04:00 +15°C° 0 mm 1 mps 756 mmHg 68%
    05:00 +15°C° 0 mm 1 mps 756 mmHg 68%
    06:00 +15°C° 0 mm 1 mps 756 mmHg 68%
    07:00 +16°C° 0 mm 1 mps 756 mmHg 61%
    08:00 +19°C° 0 mm 1 mps 756 mmHg 55%
    09:00 +21°C° 0 mm 1 mps 756 mmHg 48%
    10:00 +22°C° 0 mm 1 mps 756 mmHg 43%
    11:00 +23°C° 0 mm 1 mps 755 mmHg 38%
    12:00 +24°C° 0 mm 1 mps 755 mmHg 33%
    13:00 +25°C° 0 mm 1 mps 754 mmHg 31%
    14:00 +25°C° 0 mm 1 mps 754 mmHg 30%
    15:00 +26°C° 0 mm 1 mps 754 mmHg 29%
    16:00 +24°C° 0 mm 1 mps 754 mmHg 32%
    17:00 +23°C° 0 mm 1 mps 754 mmHg 36%
    18:00 +21°C° 0 mm 1 mps 755 mmHg 39%
    19:00 +21°C° 0 mm 1 mps 755 mmHg 40%
    20:00 +21°C° 0 mm 1 mps 755 mmHg 41%
    21:00 +20°C° 0 mm 1 mps 755 mmHg 42%
    22:00 +20°C° 0 mm 1 mps 755 mmHg 41%
    23:00 +19°C° 0 mm 1 mps 755 mmHg 41%

    26 October, Thursday

    Time Temperature Precipitation Wind Pressure Humidity
    00:00 +19°C° 0 mm 1 mps 754 mmHg 41%
    01:00 +19°C° 0 mm 1 mps 754 mmHg 40%
    02:00 +18°C° 0 mm 2 mps 754 mmHg 40%
    03:00 +18°C° 0 mm 2 mps 753 mmHg 39%
    04:00 +17°C° 0 mm 2 mps 753 mmHg 38%
    05:00 +17°C° 0 mm 3 mps 753 mmHg 37%
    06:00 +17°C° 0 mm 3 mps 753 mmHg 37%
    07:00 +19°C° 0 mm 3 mps 753 mmHg 33%
    08:00 +21°C° 0 mm 3 mps 753 mmHg 30%
    09:00 +24°C° 0 mm 3 mps 753 mmHg 27%
    10:00 +25°C° 0 mm 4 mps 752 mmHg 24%
    11:00 +27°C° 0 mm 4 mps 752 mmHg 22%
    12:00 +28°C° 0 mm 5 mps 752 mmHg 19%
    13:00 +28°C° 0 mm 5 mps 751 mmHg 19%
    14:00 +28°C° 0 mm 5 mps 751 mmHg 19%
    15:00 +28°C° 0 mm 5 mps 751 mmHg 20%
    16:00 +27°C° 0 mm 4 mps 751 mmHg 22%
    17:00 +25°C° 0 mm 3 mps 752 mmHg 25%
    18:00 +22°C° 0 mm 3 mps 752 mmHg 28%
    19:00 +21°C° 0 mm 2 mps 752 mmHg 30%
    20:00 +21°C° 0 mm 2 mps 752 mmHg 31%
    21:00 +20°C° 0 mm 2 mps 753 mmHg 33%
    22:00 +19°C° 0 mm 2 mps 753 mmHg 37%
    23:00 +19°C° 0 mm 2 mps 753 mmHg 42%

    27 October, Friday

    Time Temperature Precipitation Wind Pressure Humidity
    00:00 +19°C° 0 mm 1 mps 753 mmHg 47%
    01:00 +18°C° 0 mm 1 mps 753 mmHg 51%
    02:00 +18°C° 0 mm 1 mps 753 mmHg 56%
    03:00 +16°C° 0 mm 1 mps 754 mmHg 61%
    04:00 +16°C° 0 mm 1 mps 754 mmHg 63%
    05:00 +15°C° 0 mm 1 mps 754 mmHg 66%
    06:00 +15°C° 0 mm 1 mps 754 mmHg 69%
    07:00 +16°C° 0 mm 1 mps 754 mmHg 64%
    08:00 +19°C° 0 mm 1 mps 755 mmHg 60%
    09:00 +20°C° 0 mm 1 mps 755 mmHg 55%
    10:00 +20°C° 0 mm 2 mps 754 mmHg 51%
    11:00 +21°C° 0 mm 2 mps 754 mmHg 46%
    12:00 +23°C° 0 mm 2 mps 754 mmHg 42%
    13:00 +23°C° 0 mm 2 mps 754 mmHg 41%
    14:00 +23°C° 0 mm 2 mps 753 mmHg 41%
    15:00 +23°C° 0 mm 2 mps 753 mmHg 41%
    16:00 +21°C° 0 mm 2 mps 753 mmHg 46%
    17:00 +21°C° 0 mm 1 mps 754 mmHg 50%
    18:00 +19°C° 0 mm 1 mps 754 mmHg 55%
    19:00 +18°C° 0 mm 2 mps 754 mmHg 60%
    20:00 +17°C° 0 mm 2 mps 754 mmHg 64%
    21:00 +16°C° 0 mm 3 mps 755 mmHg 68%
    22:00 +16°C° 0 mm 2 mps 754 mmHg 72%
    23:00 +15°C° 0 mm 2 mps 754 mmHg 76%

    28 October, Saturday

    Time Temperature Precipitation Wind Pressure Humidity
    00:00 +15°C° 0 mm 2 mps 754 mmHg 79%
    01:00 +15°C° 0 mm 2 mps 754 mmHg 81%
    02:00 +14°C° 0 mm 1 mps 754 mmHg 82%
    03:00 +14°C° 0 mm 1 mps 753 mmHg 84%
    04:00 +14°C° 0 mm 1 mps 753 mmHg 85%
    05:00 +14°C° 0 mm 1 mps 753 mmHg 85%
    06:00 +13°C° 0 mm 0 mps 753 mmHg 86%
    07:00 +15°C° 0 mm 1 mps 753 mmHg 80%
    08:00 +16°C° 0 mm 1 mps 753 mmHg 74%
    09:00 +17°C° 0 mm 2 mps 753 mmHg 68%
    10:00 +18°C° 0 mm 2 mps 752 mmHg 62%
    11:00 +19°C° 0 mm 2 mps 752 mmHg 56%
    12:00 +20°C° 0 mm 3 mps 751 mmHg 50%
    13:00 +20°C° 0 mm 3 mps 750 mmHg 48%
    14:00 +21°C° 0 mm 2 mps 750 mmHg 46%
    15:00 +21°C° 0 mm 2 mps 749 mmHg 43%
    16:00 +20°C° 0 mm 2 mps 749 mmHg 45%
    17:00 +21°C° 0 mm 1 mps 750 mmHg 47%
    18:00 +20°C° 0 mm 1 mps 750 mmHg 48%
    19:00 +20°C° 0 mm 1 mps 750 mmHg 48%
    20:00 +20°C° 0 mm 1 mps 750 mmHg 48%
    21:00 +19°C° 0 mm 2 mps 749 mmHg 48%
    22:00 +19°C° 0.1 mm 2 mps 749 mmHg 48%
    23:00 +19°C° 0.1 mm 2 mps 749 mmHg 49%

    29 October, Sunday

    Time Temperature Precipitation Wind Pressure Humidity
    00:00 +19°C° 0.1 mm 2 mps 749 mmHg 49%
    01:00 +19°C° 0 mm 2 mps 749 mmHg 49%
    02:00 +19°C° 0 mm 2 mps 748 mmHg 49%
    03:00 +19°C° 0 mm 2 mps 748 mmHg 48%
    04:00 +18°C° 0 mm 2 mps 748 mmHg 48%
    05:00 +18°C° 0 mm 2 mps 748 mmHg 48%
    06:00 +18°C° 0 mm 2 mps 748 mmHg 48%
    07:00 +19°C° 0 mm 3 mps 748 mmHg 45%
    08:00 +20°C° 0 mm 4 mps 748 mmHg 42%
    09:00 +21°C° 0 mm 5 mps 748 mmHg 39%
    10:00 +22°C° 0 mm 5 mps 748 mmHg 35%
    11:00 +24°C° 0 mm 6 mps 748 mmHg 32%
    12:00 +27°C° 0 mm 6 mps 748 mmHg 29%
    13:00 +27°C° 0 mm 6 mps 748 mmHg 29%
    14:00 +27°C° 0 mm 6 mps 748 mmHg 29%
    15:00 +27°C° 0 mm 5 mps 748 mmHg 29%
    16:00 +25°C° 0 mm 4 mps 748 mmHg 32%
    17:00 +24°C° 0 mm 3 mps 748 mmHg 35%
    18:00 +21°C° 0 mm 2 mps 749 mmHg 38%
    19:00 +21°C° 0 mm 2 mps 749 mmHg 39%
    20:00 +20°C° 0 mm 2 mps 749 mmHg 39%
    21:00 +20°C° 0 mm 2 mps 750 mmHg 39%
    22:00 +19°C° 0 mm 2 mps 750 mmHg 41%
    23:00 +20°C° 0 mm 1 mps 749 mmHg 42%
    Show more